User: anonymous   Login
Location: Unspecified
(0.0000°N, 0.0000°E)
Time: 19:32:28
(UTC+00:00)
Language:

STARLINK-5917 - Orbit

View from above orbital plane
View from above orbital plane
View from above satellite
View from above satellite

Ground track
Ground track

The orbit is defined by the following mean orbital elements,

1 55942U          26145.59419669 +.00000000 +00000-0 +21465-4 0 00007
2 55942  69.9999  90.3968 0003341 261.5480  98.5301 14.98330830    05
Epoch (UTC): 25 May 2026 14:15:38
Eccentricity: 0.0003341
inclination: 69.9999°
perigee height: 570 km
apogee height: 574 km
right ascension of ascending node: 90.3968°
argument of perigee: 261.5480°
revolutions per day: 14.98330830
mean anomaly at epoch: 98.5301°

The dashed part of the orbit path shows where the satellite is in the earth's shadow,  

DLR